TSC245 EGCC-CYUL

Flight info

Callsign TSC245
Flight time N/A
Altitude 34000
Route EKLAD UY53 WAL L10 PENIL M144 BAGSO DCT RESNO/M077F360 NATC LOMSI/N0441F360 N668A TAFFY DCT KEBIG ROCKT3
Aircraft A21N/M-SDE2E3FGHIRWXY/LB1

Departure

Time 2026-05-05 12:56
Airport Manchester Airport (EGCC)

Arrival

Time N/A
Airport Montreal / Pierre Elliott Trudeau International Airport (CYUL)
Time Latitude Longitude Altitude Speed Heading
2026-05-05 11:48 53.36499 -2.28207 248 ft 0 kts 224°
2026-05-05 12:39 53.36501 -2.28204 275 ft 3 kts 224°
2026-05-05 12:39 53.36519 -2.28173 248 ft 4 kts 224°
2026-05-05 12:39 53.36540 -2.28147 248 ft 4 kts 202°
2026-05-05 12:39 53.36565 -2.28140 249 ft 4 kts 164°
2026-05-05 12:40 53.36580 -2.28154 249 ft 1 kts 135°
2026-05-05 12:40 53.36583 -2.28158 249 ft 0 kts 135°
2026-05-05 12:44 53.36577 -2.28148 249 ft 2 kts 135°
2026-05-05 12:44 53.36565 -2.28130 249 ft 3 kts 135°
2026-05-05 12:44 53.36550 -2.28104 249 ft 4 kts 135°
2026-05-05 12:45 53.36529 -2.28070 249 ft 5 kts 135°
2026-05-05 12:45 53.36505 -2.28028 249 ft 6 kts 135°
2026-05-05 12:45 53.36470 -2.27991 249 ft 6 kts 146°
2026-05-05 12:45 53.36434 -2.27939 249 ft 7 kts 150°
2026-05-05 12:46 53.36383 -2.27954 249 ft 8 kts 216°
2026-05-05 12:46 53.36371 -2.27972 248 ft 1 kts 222°
2026-05-05 12:46 53.36361 -2.27987 248 ft 3 kts 222°
2026-05-05 12:46 53.36344 -2.28013 248 ft 4 kts 223°
2026-05-05 12:47 53.36322 -2.28042 248 ft 4 kts 212°
2026-05-05 12:47 53.36304 -2.28056 247 ft 0 kts 200°
2026-05-05 12:47 53.36289 -2.28063 247 ft 3 kts 196°
2026-05-05 12:48 53.36264 -2.28076 247 ft 4 kts 196°
2026-05-05 12:48 53.36233 -2.28089 247 ft 5 kts 187°
2026-05-05 12:48 53.36199 -2.28069 247 ft 6 kts 143°
2026-05-05 12:48 53.36167 -2.28019 247 ft 7 kts 135°
2026-05-05 12:49 53.36131 -2.27959 247 ft 8 kts 134°
2026-05-05 12:49 53.36091 -2.27890 247 ft 9 kts 135°
2026-05-05 12:49 53.36039 -2.27833 247 ft 10 kts 168°
2026-05-05 12:49 53.35968 -2.27836 246 ft 11 kts 184°
2026-05-05 12:50 53.35892 -2.27849 246 ft 11 kts 187°
2026-05-05 12:50 53.35811 -2.27864 245 ft 12 kts 186°
2026-05-05 12:50 53.35724 -2.27879 244 ft 13 kts 185°
2026-05-05 12:50 53.35645 -2.27893 244 ft 6 kts 189°
2026-05-05 12:51 53.35610 -2.27934 243 ft 7 kts 227°
2026-05-05 12:51 53.35577 -2.27997 242 ft 8 kts 232°
2026-05-05 12:51 53.35542 -2.28068 241 ft 8 kts 225°
2026-05-05 12:51 53.35492 -2.28127 241 ft 9 kts 204°
2026-05-05 12:52 53.35428 -2.28157 240 ft 10 kts 189°
2026-05-05 12:52 53.35354 -2.28178 239 ft 12 kts 196°
2026-05-05 12:52 53.35277 -2.28238 237 ft 13 kts 213°
2026-05-05 12:52 53.35212 -2.28340 239 ft 13 kts 230°
2026-05-05 12:53 53.35153 -2.28463 235 ft 14 kts 231°
2026-05-05 12:53 53.35107 -2.28560 233 ft 10 kts 231°
2026-05-05 12:53 53.35060 -2.28657 232 ft 11 kts 228°
2026-05-05 12:53 53.35006 -2.28755 231 ft 12 kts 218°
2026-05-05 12:54 53.34887 -2.28965 228 ft 13 kts 226°
2026-05-05 12:54 53.34824 -2.29081 226 ft 14 kts 229°
2026-05-05 12:54 53.34761 -2.29206 224 ft 14 kts 232°
2026-05-05 12:55 53.34687 -2.29321 223 ft 15 kts 205°
2026-05-05 12:55 53.34615 -2.29345 222 ft 9 kts 175°
2026-05-05 12:55 53.34557 -2.29306 222 ft 9 kts 142°
2026-05-05 12:55 53.34539 -2.29212 223 ft 10 kts 54°
2026-05-05 12:56 53.34596 -2.29093 221 ft 26 kts 50°
2026-05-05 12:56 53.34865 -2.28548 232 ft 97 kts 51°
2026-05-05 12:56 53.35460 -2.27313 253 ft 173 kts 49°
2026-05-05 12:56 53.36250 -2.25680 1078 ft 187 kts 47°
2026-05-05 12:57 53.37093 -2.23984 2001 ft 194 kts 47°
2026-05-05 12:57 53.38007 -2.22166 2455 ft 212 kts 48°
2026-05-05 12:57 53.39087 -2.20323 2714 ft 238 kts 31°
2026-05-05 12:57 53.40712 -2.19398 3156 ft 253 kts
2026-05-05 12:58 53.42406 -2.19969 3928 ft 254 kts 334°
2026-05-05 12:58 53.43744 -2.21883 4572 ft 259 kts 305°
2026-05-05 12:58 53.44354 -2.24723 4926 ft 265 kts 276°
2026-05-05 12:58 53.44091 -2.27759 5010 ft 268 kts 254°
2026-05-05 12:59 53.43750 -2.30812 4973 ft 264 kts 277°
2026-05-05 12:59 53.44300 -2.33707 4989 ft 262 kts 298°
2026-05-05 12:59 53.45171 -2.36386 4992 ft 262 kts 301°
2026-05-05 13:00 53.46820 -2.41825 5018 ft 263 kts 286°
2026-05-05 13:00 53.46912 -2.44883 5023 ft 266 kts 264°
2026-05-05 13:01 53.45866 -2.54064 5030 ft 267 kts 261°
2026-05-05 13:01 53.45524 -2.57078 5032 ft 267 kts 261°
2026-05-05 13:01 53.45182 -2.60131 5051 ft 267 kts 262°
2026-05-05 13:01 53.44840 -2.63187 5051 ft 266 kts 262°
2026-05-05 13:02 53.44500 -2.66234 5064 ft 265 kts 262°
2026-05-05 13:02 53.44160 -2.69284 5610 ft 268 kts 261°
2026-05-05 13:02 53.43817 -2.72383 6343 ft 272 kts 261°
2026-05-05 13:02 53.43469 -2.75521 7067 ft 275 kts 261°
2026-05-05 13:03 53.43116 -2.78680 7833 ft 275 kts 261°
2026-05-05 13:03 53.42764 -2.81835 8600 ft 276 kts 261°
2026-05-05 13:03 53.42409 -2.85006 9346 ft 277 kts 261°
2026-05-05 13:03 53.42054 -2.88178 10094 ft 278 kts 261°
2026-05-05 13:04 53.41689 -2.91419 10502 ft 291 kts 261°
2026-05-05 13:04 53.41302 -2.94851 10755 ft 308 kts 260°
2026-05-05 13:04 53.40893 -2.98476 11002 ft 325 kts 261°
2026-05-05 13:04 53.40465 -3.02257 11472 ft 332 kts 260°
2026-05-05 13:05 53.40033 -3.06055 12234 ft 331 kts 261°
2026-05-05 13:05 53.39644 -3.09838 13042 ft 328 kts 265°
2026-05-05 13:05 53.39753 -3.13608 13725 ft 329 kts 283°
2026-05-05 13:05 53.40631 -3.17155 14244 ft 333 kts 302°
2026-05-05 13:06 53.41973 -3.20343 14830 ft 335 kts 306°
2026-05-05 13:06 53.43360 -3.23446 15402 ft 338 kts 306°
2026-05-05 13:06 53.44754 -3.26635 15990 ft 341 kts 305°
2026-05-05 13:06 53.46157 -3.29870 16535 ft 345 kts 304°
2026-05-05 13:07 53.47566 -3.33146 17098 ft 347 kts 304°
2026-05-05 13:07 53.48978 -3.36463 17628 ft 351 kts 304°
2026-05-05 13:07 53.50410 -3.39832 18154 ft 355 kts 304°
2026-05-05 13:07 53.51850 -3.43234 18620 ft 360 kts 304°
2026-05-05 13:08 53.53309 -3.46679 19065 ft 363 kts 304°
2026-05-05 13:08 53.54780 -3.50157 19546 ft 366 kts 303°
2026-05-05 13:08 53.56257 -3.53661 20019 ft 368 kts 303°
2026-05-05 13:08 53.57739 -3.57187 20486 ft 371 kts 303°
2026-05-05 13:09 53.59237 -3.60747 20947 ft 374 kts 303°
2026-05-05 13:09 53.60673 -3.64417 21395 ft 375 kts 296°
2026-05-05 13:09 53.61618 -3.68498 21826 ft 375 kts 281°
2026-05-05 13:09 53.61959 -3.72859 22281 ft 376 kts 273°
2026-05-05 13:10 53.62117 -3.77256 22742 ft 378 kts 272°
2026-05-05 13:10 53.62211 -3.80185 23046 ft 379 kts 272°
2026-05-05 13:10 53.62417 -3.86126 23635 ft 382 kts 272°
2026-05-05 13:10 53.62589 -3.90613 23983 ft 385 kts 272°
2026-05-05 13:11 53.62764 -3.95136 24337 ft 387 kts 272°
2026-05-05 13:11 53.62942 -3.99605 24689 ft 389 kts 272°
2026-05-05 13:11 53.63124 -4.04164 25035 ft 391 kts 272°
2026-05-05 13:11 53.63303 -4.08747 25385 ft 393 kts 272°
2026-05-05 13:12 53.63482 -4.13351 25724 ft 395 kts 272°
2026-05-05 13:12 53.63658 -4.17976 26062 ft 397 kts 272°
2026-05-05 13:12 53.63835 -4.22633 26401 ft 399 kts 272°
2026-05-05 13:12 53.64011 -4.27307 26718 ft 401 kts 272°
2026-05-05 13:13 53.64187 -4.32005 27038 ft 402 kts 272°
2026-05-05 13:13 53.64361 -4.36716 27348 ft 404 kts 272°
2026-05-05 13:13 53.64477 -4.39855 27550 ft 405 kts 272°
2026-05-05 13:13 53.64649 -4.44603 27859 ft 407 kts 272°
2026-05-05 13:14 53.64818 -4.49391 28164 ft 409 kts 272°
2026-05-05 13:14 53.64988 -4.54186 28460 ft 411 kts 272°
2026-05-05 13:14 53.65155 -4.58998 28765 ft 412 kts 272°
2026-05-05 13:14 53.65321 -4.63830 29051 ft 414 kts 272°
2026-05-05 13:15 53.65488 -4.68695 29327 ft 415 kts 271°
2026-05-05 13:15 53.65653 -4.73561 29602 ft 417 kts 271°
2026-05-05 13:15 53.65816 -4.78451 29868 ft 419 kts 271°
2026-05-05 13:15 53.65979 -4.83371 30120 ft 420 kts 271°
2026-05-05 13:16 53.66141 -4.88303 30351 ft 422 kts 271°
2026-05-05 13:16 53.66300 -4.93250 30568 ft 423 kts 271°
2026-05-05 13:16 53.66458 -4.98144 30779 ft 424 kts 271°
2026-05-05 13:16 53.66616 -5.03138 30999 ft 426 kts 271°
2026-05-05 13:17 53.66772 -5.08136 31209 ft 427 kts 271°
2026-05-05 13:17 53.66928 -5.13137 31419 ft 428 kts 271°
2026-05-05 13:17 53.67081 -5.18159 31591 ft 429 kts 271°
2026-05-05 13:17 53.67223 -5.23187 31552 ft 429 kts 269°
2026-05-05 13:18 53.66938 -5.28181 31358 ft 426 kts 257°
2026-05-05 13:18 53.66007 -5.32907 31121 ft 424 kts 244°
2026-05-05 13:18 53.64477 -5.37123 30874 ft 423 kts 232°
2026-05-05 13:18 53.62415 -5.40639 30621 ft 422 kts 219°
2026-05-05 13:19 53.59925 -5.43260 30374 ft 423 kts 207°
2026-05-05 13:19 53.57178 -5.45073 30124 ft 424 kts 201°
2026-05-05 13:19 53.54375 -5.46577 29843 ft 423 kts 197°
2026-05-05 13:19 53.51463 -5.47329 29531 ft 425 kts 184°
2026-05-05 13:20 53.48508 -5.46936 29230 ft 429 kts 171°
2026-05-05 13:20 53.45706 -5.45406 28953 ft 432 kts 158°
2026-05-05 13:20 53.43144 -5.42777 28658 ft 435 kts 144°
2026-05-05 13:20 53.41003 -5.39185 28376 ft 438 kts 130°
2026-05-05 13:21 53.39410 -5.34807 28095 ft 440 kts 116°
2026-05-05 13:21 53.38476 -5.29928 27827 ft 442 kts 102°
2026-05-05 13:21 53.38205 -5.24805 27560 ft 442 kts 90°
2026-05-05 13:21 53.38367 -5.19675 27264 ft 441 kts 87°
2026-05-05 13:22 53.38562 -5.14557 26924 ft 437 kts 88°
2026-05-05 13:22 53.38689 -5.09497 26343 ft 434 kts 89°
2026-05-05 13:22 53.38766 -5.04453 25904 ft 431 kts 90°
2026-05-05 13:22 53.38819 -4.99449 25528 ft 429 kts 90°
2026-05-05 13:23 53.38863 -4.94472 25175 ft 426 kts 90°
2026-05-05 13:23 53.38680 -4.89532 24828 ft 423 kts 97°
2026-05-05 13:23 53.38327 -4.84695 24481 ft 414 kts 98°
2026-05-05 13:23 53.37981 -4.79960 24144 ft 405 kts 98°
2026-05-05 13:24 53.37665 -4.75308 23808 ft 398 kts 97°
2026-05-05 13:24 53.37368 -4.70712 23448 ft 396 kts 97°
2026-05-05 13:24 53.37081 -4.66143 23054 ft 393 kts 97°
2026-05-05 13:24 53.36801 -4.61663 22677 ft 391 kts 97°
2026-05-05 13:25 53.36519 -4.57145 22299 ft 388 kts 97°
2026-05-05 13:25 53.36235 -4.52665 21928 ft 386 kts 97°
2026-05-05 13:25 53.35954 -4.48239 21558 ft 383 kts 97°
2026-05-05 13:25 53.35671 -4.43815 21186 ft 381 kts 97°
2026-05-05 13:26 53.35389 -4.39423 20825 ft 379 kts 97°
2026-05-05 13:26 53.35108 -4.35081 20445 ft 371 kts 97°
2026-05-05 13:26 53.34831 -4.30835 20074 ft 361 kts 97°
2026-05-05 13:26 53.34561 -4.26706 19714 ft 352 kts 97°
2026-05-05 13:27 53.34295 -4.22652 19355 ft 348 kts 97°
2026-05-05 13:27 53.34030 -4.18642 19013 ft 346 kts 97°
2026-05-05 13:27 53.33764 -4.14645 18673 ft 344 kts 97°
2026-05-05 13:27 53.33498 -4.10677 18345 ft 341 kts 97°
2026-05-05 13:28 53.33234 -4.06745 17983 ft 339 kts 97°
2026-05-05 13:28 53.32968 -4.02832 17603 ft 337 kts 97°
2026-05-05 13:28 53.32704 -3.98948 17232 ft 335 kts 97°
2026-05-05 13:28 53.32441 -3.95076 16881 ft 334 kts 96°
2026-05-05 13:29 53.32178 -3.91226 16536 ft 332 kts 96°
2026-05-05 13:29 53.31919 -3.87449 16203 ft 332 kts 96°
2026-05-05 13:29 53.31652 -3.83584 15866 ft 330 kts 96°
2026-05-05 13:29 53.31394 -3.79854 15538 ft 327 kts 96°
2026-05-05 13:30 53.31122 -3.76094 15207 ft 325 kts 98°
2026-05-05 13:30 53.30830 -3.72365 14887 ft 321 kts 96°
2026-05-05 13:30 53.30591 -3.68661 14560 ft 319 kts 95°
2026-05-05 13:30 53.30356 -3.64955 14250 ft 323 kts 95°
2026-05-05 13:31 53.30116 -3.61219 13941 ft 321 kts 95°
2026-05-05 13:31 53.29874 -3.57528 13595 ft 319 kts 95°
2026-05-05 13:31 53.29632 -3.53859 13249 ft 315 kts 95°
2026-05-05 13:31 53.29364 -3.50240 12897 ft 315 kts 102°
2026-05-05 13:32 53.28556 -3.46887 12554 ft 310 kts 118°
2026-05-05 13:32 53.27656 -3.43602 12221 ft 312 kts 111°
2026-05-05 13:32 53.26722 -3.40328 11889 ft 310 kts 118°
2026-05-05 13:32 53.25635 -3.37248 11546 ft 307 kts 129°
2026-05-05 13:33 53.24162 -3.34685 11209 ft 305 kts 138°
2026-05-05 13:33 53.22546 -3.32305 10832 ft 325 kts 140°
2026-05-05 13:33 53.20804 -3.29858 10461 ft 321 kts 140°
2026-05-05 13:33 53.19118 -3.27445 10042 ft 321 kts 140°
2026-05-05 13:34 53.17455 -3.25059 9544 ft 313 kts 139°
2026-05-05 13:34 53.15796 -3.22682 9054 ft 315 kts 139°
2026-05-05 13:34 53.14136 -3.20326 8557 ft 312 kts 140°
2026-05-05 13:34 53.12484 -3.18006 8113 ft 308 kts 140°
2026-05-05 13:35 53.10837 -3.15716 7742 ft 307 kts 140°
2026-05-05 13:35 53.09197 -3.13442 7371 ft 306 kts 139°
2026-05-05 13:35 53.07593 -3.11175 7023 ft 304 kts 139°
2026-05-05 13:35 53.05996 -3.08877 6698 ft 303 kts 138°
2026-05-05 13:36 53.04389 -3.06631 6321 ft 302 kts 139°
2026-05-05 13:36 53.02776 -3.04432 5888 ft 298 kts 140°
2026-05-05 13:36 53.01169 -3.02258 5462 ft 298 kts 140°
2026-05-05 13:36 52.99575 -3.00083 5070 ft 295 kts 138°
2026-05-05 13:37 52.98204 -2.97601 4844 ft 289 kts 120°
2026-05-05 13:37 52.97475 -2.94544 4758 ft 285 kts 93°
2026-05-05 13:37 52.97772 -2.91396 4746 ft 277 kts 59°
2026-05-05 13:37 52.99054 -2.89099 4681 ft 269 kts 27°
2026-05-05 13:38 53.00753 -2.87786 4310 ft 270 kts 23°
2026-05-05 13:38 53.02365 -2.86379 4478 ft 265 kts 30°
2026-05-05 13:38 53.03889 -2.84551 4479 ft 269 kts 40°
2026-05-05 13:38 53.05138 -2.82279 4478 ft 260 kts 52°
2026-05-05 13:39 53.06224 -2.79945 4483 ft 255 kts 37°
2026-05-05 13:39 53.07760 -2.78491 4436 ft 256 kts 21°
2026-05-05 13:39 53.09382 -2.77379 4279 ft 248 kts 25°
2026-05-05 13:39 53.10806 -2.75712 4064 ft 254 kts 41°
2026-05-05 13:40 53.12039 -2.73608 3806 ft 255 kts 45°
2026-05-05 13:40 53.13250 -2.71481 3532 ft 251 kts 41°
2026-05-05 13:40 53.14485 -2.69481 3246 ft 246 kts 42°
2026-05-05 13:40 53.15665 -2.67469 3000 ft 239 kts 44°
2026-05-05 13:41 53.16785 -2.65396 2957 ft 241 kts 46°
2026-05-05 13:41 53.17860 -2.63229 2957 ft 243 kts 48°
2026-05-05 13:41 53.18917 -2.61036 2969 ft 242 kts 49°
2026-05-05 13:41 53.19960 -2.58860 2984 ft 243 kts 48°
2026-05-05 13:42 53.21018 -2.56650 2987 ft 242 kts 49°
2026-05-05 13:42 53.22071 -2.54450 2961 ft 242 kts 49°
2026-05-05 13:42 53.23122 -2.52255 2947 ft 243 kts 49°
2026-05-05 13:42 53.24176 -2.50048 2945 ft 241 kts 49°
2026-05-05 13:43 53.25198 -2.47909 2811 ft 231 kts 49°
2026-05-05 13:43 53.26195 -2.45822 2511 ft 228 kts 49°
2026-05-05 13:43 53.27177 -2.43767 2160 ft 222 kts 49°
2026-05-05 13:43 53.28124 -2.41780 1863 ft 215 kts 48°
2026-05-05 13:44 53.29013 -2.39914 1637 ft 195 kts 48°
2026-05-05 13:44 53.29826 -2.38210 1404 ft 182 kts 48°
2026-05-05 13:44 53.30552 -2.36688 1124 ft 158 kts 47°
2026-05-05 13:44 53.31195 -2.35339 846 ft 140 kts 46°
2026-05-05 13:45 53.31814 -2.34089 669 ft 139 kts 47°
2026-05-05 13:45 53.32392 -2.32778 518 ft 140 kts 51°
2026-05-05 13:45 53.32981 -2.31501 306 ft 140 kts 47°
2026-05-05 13:45 53.33581 -2.30274 211 ft 123 kts 51°
2026-05-05 13:46 53.34009 -2.29387 221 ft 73 kts 50°
2026-05-05 13:46 53.34215 -2.28963 225 ft 30 kts 51°
2026-05-05 13:46 53.34349 -2.28686 226 ft 31 kts 51°
2026-05-05 13:46 53.34476 -2.28423 230 ft 22 kts 51°
2026-05-05 13:47 53.34583 -2.28261 234 ft 15 kts 35°
2026-05-05 13:47 53.34683 -2.28186 235 ft 16 kts 23°
2026-05-05 13:47 53.34789 -2.28110 237 ft 17 kts 20°
2026-05-05 13:47 53.34896 -2.28018 236 ft 18 kts 49°
2026-05-05 13:48 53.34978 -2.27853 238 ft 19 kts 51°
2026-05-05 13:48 53.35061 -2.27678 240 ft 20 kts 51°
2026-05-05 13:48 53.35148 -2.27496 243 ft 20 kts 51°
2026-05-05 13:48 53.35238 -2.27311 244 ft 21 kts 51°
2026-05-05 13:49 53.35325 -2.27191 245 ft 16 kts
2026-05-05 13:49 53.35425 -2.27258 247 ft 17 kts 320°
2026-05-05 13:49 53.35518 -2.27385 247 ft 18 kts 320°
2026-05-05 13:49 53.35621 -2.27451 246 ft 17 kts 34°
2026-05-05 13:50 53.35697 -2.27290 248 ft 18 kts 49°
2026-05-05 13:50 53.35755 -2.27267 249 ft 9 kts 332°
2026-05-05 13:50 53.35816 -2.27261 250 ft 11 kts 48°
2026-05-05 13:50 53.35869 -2.27219 250 ft 2 kts 352°
2026-05-05 13:51 53.35884 -2.27224 250 ft 3 kts 350°
2026-05-05 13:51 53.35894 -2.27227 250 ft 0 kts 350°
2026-05-05 13:52 53.35899 -2.27228 250 ft 2 kts 351°
2026-05-05 13:52 53.35917 -2.27231 251 ft 3 kts 356°
2026-05-05 13:52 53.35942 -2.27227 251 ft 4 kts 33°
2026-05-05 13:52 53.35949 -2.27177 251 ft 0 kts 86°
2026-05-05 13:53 53.35950 -2.27172 251 ft 1 kts 86°
2026-05-05 13:53 53.35950 -2.27149 251 ft 3 kts 88°
2026-05-05 13:53 53.35950 -2.27144 252 ft 0 kts 88°
2026-05-05 13:54 53.35950 -2.27141 252 ft 1 kts 89°
2026-05-05 13:54 53.35950 -2.27126 252 ft 0 kts 89°